Погода в Полдневом

Россия / Астраханская область     45°51′06″N   47°57′21″E
темп.,
°C
ветер,
м/с
пор.,
м/с
влажн.,
%
обл.,
%
осадки,
мм/ч
давл.,
гПа
погр.,
м
19 сентября, вс
вс1901:00+15в36663 0.0 1019230
04:00+14всв46648 0.0 1019237
07:00+14в4862100 0.0 1020338
10:00+19вюв784999 0.0 10201182
13:00+20вюв884564 0.0 10191200
16:00+19вюв8844100 0.0 10181010
19:00+17в6105743 0.0 1018613
22:00+16в6116261 0.0 1017447
20 сентября, пн
пн2001:00+17в612665 0.0 1016453
04:00+17в61268100 0.0 1015390
07:00+18в5107387 0.0 1014320
10:00+22вюв565268 0.0 1014482
13:00+22юв4555100 0.0 1014647
16:00+21вюв5569100 0.0 1013495
19:00+19вюв3585100 0.0 1013111
22:00+19в348889 0.0 101470
21 сентября, вт
вт2101:00+19юв3385100 0.0 101466
04:00+18ссз338683 0.0 101456
07:00+17ссв497989 0.0 1015291
10:00+23в685197 0.0 1015522
13:00+24вюв444739 0.0 1015973
16:00+24юв444957 0.0 1014587
19:00+19вюв4667100 0.0 1013145
22:00+19вюв476786 0.0 1012158
22 сентября, ср
ср2201:00+18в346163 0.0 101156
04:00+19ююв2367100 0.0 101030
07:00+19юв2270100 0.0 101025
10:00+22зюз2256100 0.0 1011581
13:00+24сз4544100 0.0 1010760
16:00+23ссз8846100 0.0 1011902
19:00+20ссв71362100 0.0 1011563
22:00+19с51061100 0.0 1010348
23 сентября, чт
чт2301:00+17ссз51073100 0.0 1009280
04:00+17ссз71075100 0.0 1008438
07:00+16ссз71082100 0.7 1008413
10:00+17с6873100 0.7 1009415
13:00+20ссз5657100 0.0 1009612
16:00+21ссз6752100 0.0 1008790
19:00+18ссз596327 0.0 1008406
22:00+16с5974100 0.0 1006282